Regional Weather Roundup
Issued by NWS

Home | Current Version | Previous Version | Text Only | Print | Product List | Glossary Off
Versions: 1 2 3 4 5 6 7 8 9 10 11 12 13 14 15 16 17 18 19 20 21 22 23 24 25 26 27 28 29 30 31 32 33 34 35 36 37 38 39 40 41 42 43 44 45 46 47 48 49 50

000
ASUS43 KDMX 051707
RWRIA

WEATHER ROUNDUP FOR IOWA
NATIONAL WEATHER SERVICE DES MOINES IA
1200 PM CDT SUN JUL 05 2015

NOTE: "FAIR" INDICATES FEW OR NO CLOUDS BELOW 12,000 FEET WITH NO
SIGNIFICANT WEATHER AND/OR OBSTRUCTIONS TO VISIBILITY.

* - THESE STATIONS ARE NOT NWS STATIONS...THUS NOT UNDER NWS
QUALITY CONTROL.  THEY ALSO DO NOT REPORT WEATHER SUCH
AS PRECIPITATION OR FOG.

IAZ001>003-012>014-020>022-031>034-043>046-051800-
   NORTHWEST IOWA

CITY           SKY/WX    TMP DP  RH WIND       PRES   REMARKS
CARROLL *      SUNNY     81  70  69 S15G22    29.92F HX  84
CHEROKEE *     MOSUNNY   79  70  73 S13G18    29.87F HX  81
DENISON *      MOSUNNY   75  68  78 S10G20    29.89F
LE MARS *      SUNNY     79  66  65 S13       29.84F HX  81
ORANGE CITY *  SUNNY     77  66  69 S14       29.85F
SHELDON *      SUNNY     79  77  94 S18       29.84F HX  83
SIOUX CITY     PTSUNNY   78  68  71 SE18      29.83F HX  80
SPENCER        PTSUNNY   81  67  62 S17G24    29.88F HX  83
STORM LAKE *   SUNNY     79  70  73 S15       29.91F HX  81
$$

IAZ055>058-069>071-079>083-090>094-051800-
   SOUTHWEST IOWA

CITY           SKY/WX    TMP DP  RH WIND       PRES   REMARKS
ATLANTIC *     SUNNY     81  70  69 S14G21    29.93F HX  84
AUDUBON *      SUNNY     81  72  74 S10       29.95F HX  84
CLARINDA *     MOSUNNY   82  70  65 S13       29.97F HX  86
COUNCIL BLFS * SUNNY     75  70  83 SE9       29.92F
CRESTON *      SUNNY     81  70  69 S10       29.99S HX  84
HARLAN  *      SUNNY     79  75  89 S13       29.96F HX  82
LAMONI         CLOUDY    83  70  64 S9        29.99S HX  87
RED OAK *      MOSUNNY   81  72  74 S15       29.94F HX  84
SHENANDOAH *   SUNNY     79  72  78 S8G15     29.95S HX  82
$$

IAZ047>049-059>061-072>074-084-051800-
   CENTRAL IOWA

CITY           SKY/WX    TMP DP  RH WIND       PRES   REMARKS
AMES           CLOUDY    79  69  71 S10       29.97F HX  81
ANKENY *       SUNNY     81  72  74 SE10      29.98F HX  84
CHARITON *     SUNNY     81  70  69 S9        30.01R HX  84
DES MOINES     CLOUDY    81  68  64 S13       29.98S HX  84
GRINNELL*      PTSUNNY   79  66  65 S9        30.02S HX  81
KNOXVILLE *    SUNNY     81  68  65 S8        30.00R HX  83
MARSHALLTOWN   PTSUNNY   78  67  68 S10       29.98F HX  80
PELLA *        CLOUDY    82  72  69 S6        30.02S HX  87
PERRY *          N/A     79  68  69 S10       29.96F HX  81
$$

IAZ004>006-015-016-023>025-035-036-051800-
   NORTH CENTRAL IOWA

CITY           SKY/WX    TMP DP  RH WIND       PRES   REMARKS
ALGONA *       SUNNY     79  68  69 S20       29.93R HX  81
CLARION *      SUNNY     79  68  69 S18       29.94F HX  81
ESTHERVILLE    CLOUDY    78  68  71 S23G30    29.88R HX  80
FORT DODGE *   CLOUDY    79  68  69 S15       29.95F HX  81
MASON CITY     CLOUDY    78  67  68 S16       29.97F HX  80
FOREST CITY *  SUNNY     77  66  69 S15G22    29.95S
IOWA FALLS *     N/A     79  66  65 S12       29.99F HX  81
$$

IAZ007>011-017>019-026>030-037>042-050>054-066-051800-
   NORTHEAST IOWA

CITY           SKY/WX    TMP DP  RH WIND       PRES   REMARKS
CEDAR RAPIDS   MOSUNNY   79  68  69 S12       30.02F HX  81
CHARLES CITY * SUNNY     79  70  73 S14G20    29.99F HX  81
CLINTON *      SUNNY     79  66  65 S8        30.08F HX  81
DECORAH *        N/A    N/A N/A N/A MISG        N/A
DUBUQUE        SUNNY     78  66  66 S7        30.05F HX  80
MONTICELLO *   MOSUNNY   81  68  65 S9G16     30.04S HX  83
OELWEIN *      PTSUNNY   77  68  73 S9G16     30.03S
WATERLOO       MOSUNNY   80  66  62 S12       29.99F HX  82
$$

IAZ064-065-067-068-078-051800-
   EAST CENTRAL IOWA

CITY           SKY/WX    TMP DP  RH WIND       PRES   REMARKS
DAVENPORT      SUNNY     79  65  62 S9        30.05F HX  81
IOWA CITY      MOSUNNY   80  66  62 S10       30.03F HX  82
MT. PLEASANT * SUNNY     84  63  48 SE8       30.03F HX  85
MUSCATINE *    SUNNY     82  64  54 S9G17     30.03F HX  84
QUAD CITIES    PTSUNNY   80  66  62 S7        30.04F HX  82
$$

IAZ062-063-075>077-085>089-095>099-051800-
   SOUTHEAST IOWA

CITY           SKY/WX    TMP DP  RH WIND       PRES   REMARKS
BURLINGTON     SUNNY     80  68  66 SE8       30.04F HX  83
FAIRFIELD *    MOSUNNY   81  68  65 S9G17     30.02F HX  83
FORT MADISON * SUNNY     81  72  74 S8        30.04F HX  84
KEOKUK *       MOSUNNY   81  73  78 SE8       30.03F HX  85
OSKALOOSA *      N/A     81  70  69 S6        30.01F HX  84
CENTERVILLE *  SUNNY     81  70  69 S9        30.03S HX  84
OTTUMWA        PTSUNNY   80  70  71 S8        29.99F HX  83
WASHINGTON *   SUNNY     81  70  69 S7G14     30.04F HX  84
$$

ABBREVIATIONS USED IN REMARKS
   TC - TEMPERATURES IN CELSIUS
  WCI - WIND CHILL INDEX
   HX - HEAT INDEX
  VSB - VISIBILITY
$$




USA.gov is the U.S. government's official web portal to all federal, state and local government web resources and services.